[[{"header":{"parameterUnit":"m.s-1","parameterCategory":1,"la1":30.2991,"la2":30.254,"lo1":-89.0895,"lo2":-89.0444,"dy":0.0017,"dx":0.0017,"nx":28,"ny":28,"refTime":"2024-12-22T03:00:00:Z","depth":0,"parameterNumber":2,"parameterNumberName":"U-component_of_WINDS"},"data":[0,0,0,0,0,0,0,0,0,0,0,0,0,0,0,0,0,0,0,0,0,0,0,0,0,0,0,0,0,0,0,0,0,0,0,0,0,0,0,0,0,0,0,0,0,0,0,0,0,0,0,0,0,0,0,0,0,0,-4.448,-4.448,0,-4.4478,-4.4478,-4.4478,-4.4305,-4.4301,-4.4296,-4.4292,-4.4292,-4.4296,-4.43,0,0,0,0,0,0,0,0,0,0,0,0,0,-4.4334,-4.4338,-4.448,-4.448,-4.448,-4.4478,-4.4478,-4.4478,-4.4306,-4.43,-4.4295,-4.429,-4.4291,-4.4296,-4.4301,0,0,0,0,0,0,0,0,0,0,0,0,0,-4.4372,-4.4339,-4.448,-4.4394,-4.4386,-4.4478,-4.4478,-4.4478,-4.4307,-4.43,-4.4294,-4.4287,-4.4289,-4.4295,-4.4301,-4.4477,0,0,-4.4321,-4.4324,0,0,0,0,0,0,0,0,-4.437,-4.4377,-4.4406,-4.44,-4.4391,-4.4385,-4.4427,-4.4478,-4.4309,-4.4337,-4.4292,-4.4284,-4.4329,-4.4331,-4.4346,-4.4477,-4.4477,-4.4321,-4.4325,-4.4328,-4.433,0,0,0,0,0,0,0,-4.4367,-4.4376,-4.4479,-4.4407,-4.4398,-4.4355,-4.4353,-4.4436,-4.4371,-4.4334,-4.4322,-4.4324,-4.4323,-4.434,-4.4345,-4.4477,-4.4321,-4.4327,-4.4331,-4.4333,-4.4749,-4.4756,0,0,0,0,0,0,-4.4377,-4.4375,-4.4479,-4.4479,-4.4364,-4.4363,-4.4361,-4.4394,-4.437,-4.4359,-4.433,-4.4316,-4.4333,-4.4337,-4.4344,-4.4545,-4.4328,-4.4334,-4.4338,-4.4742,-4.4751,-4.4759,0,0,0,0,0,0,-4.4374,-4.4387,-4.4479,-4.4424,-4.4432,-4.4373,-4.4412,-4.4398,-4.4414,-4.4366,-4.4354,-4.4359,-4.4328,-4.4335,-4.4444,-4.4543,-4.4337,-4.4343,-4.4733,-4.4745,-4.4755,-4.4951,0,0,0,0,0,0,-4.4371,-4.4388,-4.4454,-4.4427,-4.4436,-4.458,-4.4418,-4.4402,-4.4425,-4.4407,-4.439,-4.4381,-4.4323,-4.4436,-4.4451,-4.4548,-4.4347,-4.4724,-4.4738,-4.4751,-4.4936,-4.4967,-4.4995,0,0,0,0,0,-4.4366,-4.451,-4.4458,-4.4471,-4.4517,-4.4586,-4.4591,-4.4521,-4.4434,-4.45,-4.4469,-4.4382,-4.4531,-4.4449,-4.4464,-4.4565,-4.4718,-4.4734,-4.475,-4.4922,-4.4961,-4.4994,0,0,0,0,0,0,-4.4551,-4.4505,-4.4446,-4.4586,-4.4591,-4.4557,-4.4637,-4.4565,-4.4595,-4.4577,-4.4489,-4.4487,-4.461,-4.4598,-4.4508,-4.4732,-4.4609,-4.4629,-4.4734,-4.4771,-4.48,-4.4799,-4.4353,0,0,0,0,0,-4.4608,-4.4667,-4.4624,-4.4751,-4.4757,-4.4698,-4.4725,-4.467,-4.4672,-4.4674,-4.465,-4.4656,-4.4704,-4.4737,-4.4779,-4.4934,-4.4927,-4.5011,-4.504,-4.5065,-4.5082,-4.5161,-4.5198,-4.4812,-4.4812,-4.4812,0,0,-4.4726,-4.4708,-4.4751,-4.4788,-4.4785,-4.4849,-4.47,-4.4774,-4.482,-4.4685,-4.4785,-4.477,-4.477,-4.4903,-4.496,-4.4897,-4.5188,-4.5086,-4.5106,-4.511,-4.5182,-4.5219,-4.5251,-4.4823,-4.4821,-4.4819,0,0,-4.4972,-4.4966,-4.507,-4.507,-4.5068,-4.5028,-4.5053,-4.503,-4.5013,-4.5113,-4.5012,-4.5067,-4.5151,-4.5155,-4.5168,-4.5416,-4.5336,-4.5433,-4.5586,-4.5664,-4.5694,-4.5721,-4.5807,-4.5839,-4.5451,-4.5452,-4.5452,0,-4.5119,-4.521,-4.5133,-4.5212,-4.5231,-4.5111,-4.5215,-4.522,-4.5233,-4.5248,-4.5177,-4.528,-4.5272,-4.5402,-4.5463,-4.5479,-4.5504,-4.5433,-4.5696,-4.5722,-4.5746,-4.5826,-4.5859,-4.5463,-4.5462,-4.546,-4.5459,0,-4.5389,-4.5454,-4.5539,-4.5552,-4.558,-4.5672,-4.5608,-4.5647,-4.559,-4.5557,-4.566,-4.5646,-4.5682,-4.5709,-4.5656,-4.5833,-4.5793,-4.5712,-4.5585,-4.5795,-4.5869,-4.59,-4.5479,-4.5475,-4.5472,-4.5469,0,0,-4.5751,-4.572,-4.5752,-4.5755,-4.5744,-4.5793,-4.588,-4.5913,-4.5947,-4.596,-4.6029,-4.6104,-4.6027,-4.6042,-4.5988,-4.6057,-4.6252,-4.5966,-4.5964,-4.6017,-4.6443,-4.6502,-4.654,-4.62,-4.6206,-4.621,-4.6442,0,-4.5987,-4.6131,-4.6064,-4.6216,-4.6273,-4.6161,-4.6236,-4.6238,-4.621,-4.6255,-4.6224,-4.6277,-4.6173,-4.6181,-4.6245,-4.6215,-4.6335,-4.6197,-4.6262,-4.6265,-4.6262,-4.6579,-4.6642,-4.6861,-4.6471,-4.6476,-4.6479,0,-4.6281,-4.6304,-4.6462,-4.6439,-4.646,-4.6529,-4.6554,-4.6599,-4.6599,-4.6573,-4.6591,-4.652,-4.6603,-4.648,-4.6592,-4.65,-4.6523,-4.6512,-4.6519,-4.6519,-4.6383,-4.6585,-4.6929,-4.6961,-4.6525,-4.6521,-4.6518,0,-4.6524,-4.6596,-4.6699,-4.6706,-4.6683,-4.6733,-4.6726,-4.6718,-4.6743,-4.6765,-4.678,-4.6813,-4.683,-4.6858,-4.6798,-4.6714,-4.6918,-4.679,-4.6897,-4.6899,-4.6942,-4.694,-4.7292,-4.6964,-4.6963,-4.6963,-4.6962,0,-4.6793,-4.6893,-4.6807,-4.687,-4.6979,-4.6901,-4.7011,-4.6992,-4.6986,-4.7043,-4.695,-4.7006,-4.6925,-4.6973,-4.6927,-4.7025,-4.7035,-4.7016,-4.7002,-4.7022,-4.7024,-4.7033,-4.7015,-4.6971,-4.6969,-4.6968,-4.6966,0,-4.7082,-4.7029,-4.7133,-4.7102,-4.7097,-4.7178,-4.7151,-4.7208,-4.7174,-4.7247,-4.726,-4.7207,-4.7258,-4.7202,-4.725,-4.7219,-4.7351,-4.7316,-4.735,-4.7339,-4.7448,-4.7438,-4.7816,-4.7861,-4.7507,-4.7511,-4.7514,0,-4.7255,-4.7329,-4.7306,-4.7337,-4.7335,-4.7387,-4.741,-4.7338,-4.7367,-4.7371,-4.7428,-4.7471,-4.7501,-4.7589,-4.7554,-4.759,-4.7553,-4.7684,-4.7558,-4.7576,-4.7552,-4.7546,-4.7552,-4.7708,-4.7713,-4.7716,-4.7719,0,-4.7567,-4.7537,-4.7574,-4.7603,-4.7634,-4.7654,-4.7666,-4.7697,-4.7622,-4.7659,-4.7709,-4.7733,-4.7781,-4.7825,-4.7851,-4.7843,-4.7769,-4.7759,-4.7785,-4.7805,-4.782,-4.781,-4.7417,-4.775,-4.7747,-4.7745,-4.7743,-4.7742,-4.7801,-4.786,-4.7853,-4.7897,-4.7899,-4.7913,-4.7964,-4.7936,-4.7976,-4.8009,-4.7964,-4.8027,-4.8024,-4.8051,-4.8052,-4.81,-4.8044,-4.8083,-4.8092,-4.8102,-4.8117,-4.7816,-4.8105,-4.8104,-4.8103,-4.8102,-4.8102,0,-4.8104,-4.8094,-4.8136,-4.8155,-4.8191,-4.8118,-4.8128,-4.8162,-4.8218,-4.8222,-4.8253,-4.8311,-4.8353,-4.8323,-4.8358,-4.8402,-4.8369,-4.8413,-4.8407,-4.8407,-4.8166,-4.8138,-4.844,-4.844,-4.844,-4.8439,-4.8439,-4.8439,-4.8266,-4.8362,-4.8332,-4.8427,-4.8416,-4.8476,-4.8487,-4.8499,-4.8501,-4.857,-4.8604,-4.8583,-4.8573,-4.8607,-4.8642,-4.8632,-4.8648,-4.8704,-4.8682,-4.8457,-4.8424,-4.8392,-4.8365,-4.8709,-4.871,-4.8918,-4.892,-4.8921]},{"header":{"parameterUnit":"m.s-1","parameterCategory":1,"la1":30.2991,"la2":30.254,"lo1":-89.0895,"lo2":-89.0444,"dy":0.0017,"dx":0.0017,"nx":28,"ny":28,"refTime":"2024-12-22T03:00:00:Z","depth":0,"parameterNumber":3,"parameterNumberName":"V-component_of_WINDS"},"data":[0,0,0,0,0,0,0,0,0,0,0,0,0,0,0,0,0,0,0,0,0,0,0,0,0,0,0,0,0,0,0,0,0,0,0,0,0,0,0,0,0,0,0,0,0,0,0,0,0,0,0,0,0,0,0,0,0,0,-1.0891,-1.0891,0,-1.0926,-1.0927,-1.0927,-1.0961,-1.0961,-1.0962,-1.0962,-1.0996,-1.0997,-1.0997,0,0,0,0,0,0,0,0,0,0,0,0,0,-1.0848,-1.0849,-1.0891,-1.0891,-1.0892,-1.0926,-1.0927,-1.0927,-1.0961,-1.0961,-1.0962,-1.0962,-1.0996,-1.0997,-1.0997,0,0,0,0,0,0,0,0,0,0,0,0,0,-1.0873,-1.0849,-1.0891,-1.0913,-1.0915,-1.0926,-1.0927,-1.0927,-1.0961,-1.0961,-1.0962,-1.0963,-1.0996,-1.0997,-1.0997,-1.0989,0,0,-1.1,-1.1,0,0,0,0,0,0,0,0,-1.0872,-1.0875,-1.0909,-1.0911,-1.0914,-1.094,-1.0924,-1.0948,-1.0961,-1.0943,-1.0962,-1.0963,-1.0977,-1.0979,-1.0984,-1.0991,-1.0992,-1.1,-1.1,-1.1001,-1.1001,0,0,0,0,0,0,0,-1.087,-1.0874,-1.0905,-1.0909,-1.0912,-1.0919,-1.0924,-1.0929,-1.0956,-1.0945,-1.0947,-1.0951,-1.0978,-1.0984,-1.0985,-1.0993,-1.1,-1.1,-1.1001,-1.1001,-1.0991,-1.099,0,0,0,0,0,0,-1.0866,-1.0872,-1.0904,-1.0906,-1.0894,-1.092,-1.0925,-1.0931,-1.0956,-1.096,-1.0951,-1.0953,-1.0982,-1.0984,-1.0987,-1.0977,-1.1001,-1.1001,-1.1002,-1.0992,-1.0991,-1.099,0,0,0,0,0,0,-1.0864,-1.0868,-1.0902,-1.089,-1.0894,-1.092,-1.0926,-1.0931,-1.0937,-1.096,-1.0965,-1.0951,-1.0983,-1.0986,-1.0988,-1.0979,-1.1002,-1.1002,-1.0993,-1.0992,-1.0991,-1.0959,0,0,0,0,0,0,-1.0863,-1.0867,-1.0866,-1.0889,-1.0895,-1.0904,-1.0926,-1.0931,-1.0938,-1.0941,-1.0962,-1.0966,-1.0983,-1.0986,-1.0988,-1.098,-1.1003,-1.0994,-1.0992,-1.0991,-1.096,-1.0956,-1.0953,0,0,0,0,0,-1.0862,-1.0855,-1.0865,-1.0869,-1.0893,-1.0903,-1.0906,-1.0927,-1.0937,-1.0935,-1.0949,-1.0966,-1.0979,-1.0986,-1.0989,-1.0981,-1.0994,-1.0993,-1.0991,-1.0962,-1.0957,-1.0953,0,0,0,0,0,0,-1.083,-1.0859,-1.087,-1.0872,-1.0885,-1.0909,-1.0907,-1.0921,-1.0931,-1.0933,-1.0957,-1.0961,-1.096,-1.0971,-1.0978,-1.0973,-1.0989,-1.0988,-1.0966,-1.0962,-1.0958,-1.0955,-1.1003,0,0,0,0,0,-1.0823,-1.0829,-1.0854,-1.0853,-1.0859,-1.0881,-1.0886,-1.0901,-1.0915,-1.092,-1.0936,-1.0948,-1.0955,-1.0959,-1.0967,-1.0962,-1.0966,-1.0957,-1.0954,-1.0951,-1.0949,-1.0945,-1.0941,-1.0985,-1.0985,-1.0985,0,0,-1.0809,-1.0825,-1.0828,-1.0847,-1.0859,-1.0863,-1.0886,-1.089,-1.0894,-1.0921,-1.0924,-1.0935,-1.095,-1.0948,-1.0948,-1.0957,-1.0938,-1.0948,-1.0946,-1.0946,-1.0943,-1.0939,-1.0935,-1.0984,-1.0984,-1.0984,0,0,-1.0785,-1.0799,-1.0799,-1.081,-1.0827,-1.0842,-1.0842,-1.0863,-1.0872,-1.0875,-1.0895,-1.0898,-1.091,-1.092,-1.0926,-1.0904,-1.0918,-1.0905,-1.0886,-1.0882,-1.0879,-1.0876,-1.0866,-1.0863,-1.0904,-1.0904,-1.0904,0,-1.0766,-1.0775,-1.0797,-1.08,-1.0806,-1.0831,-1.083,-1.0839,-1.0858,-1.0861,-1.0871,-1.0885,-1.0897,-1.0897,-1.0891,-1.0896,-1.0895,-1.0903,-1.0877,-1.0875,-1.0872,-1.0863,-1.086,-1.0902,-1.0902,-1.0903,-1.0903,0,-1.0749,-1.0754,-1.0752,-1.0769,-1.0775,-1.0776,-1.0797,-1.08,-1.0813,-1.0826,-1.0828,-1.0843,-1.0854,-1.0855,-1.0868,-1.0856,-1.086,-1.0873,-1.089,-1.0866,-1.0858,-1.0855,-1.09,-1.09,-1.0901,-1.0901,0,0,-1.0708,-1.0736,-1.0734,-1.0741,-1.0761,-1.0766,-1.0766,-1.0777,-1.0778,-1.079,-1.079,-1.0799,-1.081,-1.0817,-1.0831,-1.0828,-1.0807,-1.0841,-1.0842,-1.0833,-1.0793,-1.0782,-1.0778,-1.0817,-1.0816,-1.0816,-1.0791,0,-1.0687,-1.0691,-1.071,-1.0707,-1.0712,-1.0734,-1.0734,-1.0746,-1.0757,-1.0762,-1.0774,-1.078,-1.0795,-1.0799,-1.0797,-1.081,-1.0799,-1.0812,-1.0816,-1.0816,-1.0811,-1.0774,-1.0764,-1.074,-1.0788,-1.0788,-1.0787,0,-1.0664,-1.0673,-1.0671,-1.0689,-1.0692,-1.0692,-1.0702,-1.0706,-1.0719,-1.0727,-1.0734,-1.0749,-1.075,-1.0765,-1.0765,-1.0774,-1.0776,-1.0782,-1.0782,-1.0783,-1.08,-1.0773,-1.0733,-1.0728,-1.0783,-1.0783,-1.0784,0,-1.0632,-1.0645,-1.0645,-1.065,-1.0672,-1.0671,-1.0679,-1.0693,-1.0697,-1.0705,-1.0708,-1.0716,-1.072,-1.0725,-1.0741,-1.0751,-1.0739,-1.0756,-1.0745,-1.0744,-1.0741,-1.0741,-1.0699,-1.0743,-1.0743,-1.0743,-1.0744,0,-1.0607,-1.0605,-1.0631,-1.0631,-1.0628,-1.0648,-1.0645,-1.0655,-1.0666,-1.0668,-1.0687,-1.0688,-1.071,-1.0712,-1.0725,-1.0722,-1.0724,-1.073,-1.0733,-1.0728,-1.0727,-1.0729,-1.0731,-1.0743,-1.0743,-1.0743,-1.0743,0,-1.0572,-1.0589,-1.0591,-1.061,-1.0614,-1.0611,-1.0627,-1.0627,-1.0639,-1.0641,-1.0642,-1.0661,-1.0665,-1.0682,-1.069,-1.0698,-1.069,-1.0697,-1.0686,-1.0688,-1.0675,-1.0676,-1.0633,-1.0628,-1.0676,-1.0676,-1.0675,0,-1.0554,-1.0553,-1.0572,-1.0574,-1.0582,-1.0585,-1.0589,-1.0609,-1.0612,-1.0625,-1.0623,-1.0628,-1.0633,-1.0638,-1.0652,-1.0657,-1.0664,-1.0649,-1.0665,-1.0659,-1.0662,-1.0662,-1.0661,-1.0645,-1.0644,-1.0644,-1.0644,0,-1.0521,-1.0529,-1.0535,-1.0543,-1.0547,-1.0554,-1.0562,-1.0563,-1.0584,-1.0586,-1.059,-1.0594,-1.0602,-1.0606,-1.0614,-1.0621,-1.0635,-1.0638,-1.0636,-1.063,-1.0623,-1.0625,-1.0675,-1.0639,-1.064,-1.064,-1.064,-1.064,-1.0494,-1.0492,-1.0505,-1.051,-1.0518,-1.0524,-1.0525,-1.0536,-1.054,-1.0548,-1.0559,-1.0561,-1.0571,-1.0582,-1.0589,-1.059,-1.0598,-1.0595,-1.0593,-1.0592,-1.0589,-1.0623,-1.0591,-1.0591,-1.0592,-1.0592,-1.0592,0,-1.046,-1.0469,-1.0473,-1.0483,-1.0486,-1.05,-1.0509,-1.051,-1.0512,-1.052,-1.0525,-1.0528,-1.0532,-1.0545,-1.055,-1.0548,-1.0555,-1.0549,-1.0549,-1.055,-1.0582,-1.0583,-1.0543,-1.0543,-1.0543,-1.0544,-1.0544,-1.0544,-1.0443,-1.0441,-1.0451,-1.0452,-1.0461,-1.0463,-1.0467,-1.0472,-1.0479,-1.0482,-1.0485,-1.0494,-1.0504,-1.0509,-1.0513,-1.0516,-1.0517,-1.0508,-1.0514,-1.0543,-1.0548,-1.0552,-1.0554,-1.0509,-1.0508,-1.0482,-1.0482,-1.0482]}]]